Wind_Speed
42 42 44 45 45 45 45 44 44 43 41 41 40 39 38 38 38 39 40 40 39 39 40 39 38 38 38 39 40 40 40 41 41 41 40 39 39 39 38 38 38 39 40
43 43 44 44 45 45 45 46 45 44 43 42 42 42 40 40 40 41 41 41 41 41 41 42 41 40 40 40 41 41 42 42 42 41 41 40 39 39 39 39 39 40 40
43 43 44 44 45 45 44 45 45 44 43 43 45 44 43 42 42 43 42 42 43 43 42 43 43 43 42 42 43 42 42 42 42 43 43 41 41 40 40 40 40 41 41
43 43 43 44 45 46 46 46 45 45 44 44 45 46 46 45 44 43 43 44 44 43 43 44 44 45 45 44 44 43 43 43 43 43 43 43 43 42 41 40 40 40 40
43 44 44 44 45 46 46 47 47 46 46 46 46 46 46 47 46 44 45 45 44 44 44 45 45 46 46 46 45 44 45 45 44 45 44 44 44 43 42 41 40 40 41
41 43 43 43 44 46 46 46 47 47 48 47 47 47 46 46 46 45 45 45 45 46 46 47 46 46 46 46 47 46 45 45 45 45 45 44 44 43 43 42 42 41 41
39 41 41 42 42 43 44 45 47 47 47 48 48 47 48 47 47 47 46 46 46 44 44 45 45 46 46 46 46 46 46 45 45 45 45 44 43 44 44 43 43 42 42
36 37 39 40 40 41 42 43 44 45 46 46 46 46 46 47 47 47 46 46 45 46 45 44 44 45 45 44 45 45 45 45 45 45 45 44 44 45 44 43 44 44 44
34 35 37 39 39 40 40 40 41 42 43 44 45 45 45 45 45 46 46 47 47 47 45 45 45 45 44 43 43 44 44 43 43 44 44 44 44 44 44 44 45 46 45
32 34 36 38 39 39 39 39 40 40 41 42 43 43 43 44 44 45 46 46 47 46 45 45 44 45 44 43 43 44 43 43 43 43 43 43 43 43 43 43 44 45 45
31 33 35 37 39 39 39 40 39 40 41 42 43 43 43 44 44 45 46 46 46 46 46 46 44 44 43 43 43 43 43 44 43 43 43 43 43 43 43 43 43 43 44
29 31 33 36 37 38 39 39 40 39 40 43 43 44 44 45 45 45 45 46 46 46 46 46 44 44 44 44 44 43 43 43 43 43 43 43 43 44 44 43 43 43 44
30 32 34 36 37 39 40 39 39 39 40 41 42 43 44 44 44 45 46 46 46 45 46 45 45 45 45 45 44 43 42 42 42 43 43 43 43 42 43 43 43 44 45
29 32 34 35 36 38 39 40 40 40 40 40 41 43 44 44 44 44 46 46 46 46 46 46 46 45 45 44 44 43 42 42 42 42 42 42 42 42 42 42 43 44 44
30 31 33 35 36 37 38 39 40 41 40 40 41 43 43 44 45 45 45 45 46 46 48 47 46 45 44 43 43 42 41 41 41 41 42 42 42 41 41 42 44 44 44
30 32 32 34 35 37 38 39 41 41 41 41 42 43 43 43 44 44 44 44 44 45 45 44 44 44 43 42 42 41 41 41 41 42 42 42 41 41 42 43 44 43 43
30 32 33 33 35 36 38 39 41 42 43 43 43 43 44 43 43 43 43 42 43 43 43 43 43 42 42 42 42 42 42 43 42 42 42 41 41 41 42 42 42 42 42
29 31 32 33 35 36 37 39 41 42 43 44 44 44 44 44 45 44 43 43 42 42 41 41 41 40 41 41 41 42 43 43 43 42 41 41 41 42 42 41 42 42 41
29 30 31 32 34 35 36 37 39 40 42 43 43 43 43 43 44 44 42 42 41 41 40 39 39 39 40 41 41 42 43 42 41 41 40 41 41 41 41 41 41 42 42
30 30 31 32 33 34 35 36 38 39 40 40 40 41 41 41 42 42 41 40 40 39 38 37 37 38 38 39 39 40 40 40 40 39 40 40 41 41 41 41 41 41 40
29 29 31 32 33 34 34 36 37 38 38 38 38 38 39 39 40 40 40 40 39 39 38 36 36 37 37 37 38 38 38 38 38 39 39 40 40 40 40 40 41 40 40
29 29 30 31 33 34 34 34 35 36 36 36 37 36 37 37 38 39 39 38 37 37 37 37 36 36 37 37 36 36 37 37 37 38 39 40 40 40 39 39 40 39 38
29 30 30 31 32 33 34 34 34 34 35 35 35 35 36 35 36 37 38 37 37 37 36 36 36 36 36 36 36 36 36 36 37 37 38 38 38 38 38 38 38 37 37
29 30 31 31 32 33 34 35 34 34 34 34 34 34 34 34 35 35 36 36 36 36 36 35 36 36 36 36 36 36 36 36 37 37 36 36 36 36 36 36 36 36 35
29 29 30 31 31 32 33 33 34 34 33 33 34 34 34 34 34 34 34 34 34 34 34 35 35 35 34 35 35 35 35 34 34 34 34 35 35 35 35 34 34 33 32
30 30 30 30 30 31 30 30 31 31 31 31 32 33 33 33 33 33 33 33 33 34 34 34 34 33 34 34 34 33 33 33 33 33 33 33 33 33 32 31 31 30 30
Wind_Direction
232 232 233 234 233 234 235 236 239 239 240 241 242 244 246 247 249 250 253 255 258 261 263 266 268 270 272 275 277 279 282 284 285 286 286 287 288 289 289 289 289 290 291
233 234 233 233 234 235 237 239 239 240 241 242 243 245 247 247 249 251 253 255 257 261 264 265 268 271 273 275 278 280 281 283 283 284 285 285 287 287 287 288 289 290 291
234 236 234 234 234 236 237 238 238 240 242 243 244 245 247 248 250 253 255 257 259 260 262 265 267 270 273 275 277 279 280 281 282 284 285 285 286 287 286 287 288 289 290
233 234 235 235 236 238 239 240 240 241 242 244 245 247 249 251 253 254 257 258 260 261 262 265 268 270 273 275 277 277 279 280 281 282 283 285 286 287 287 287 288 290 290
232 232 235 237 238 239 240 242 242 243 243 244 246 248 250 252 253 254 256 259 260 261 264 266 269 270 272 274 276 278 278 278 279 281 282 284 285 286 286 287 288 289 290
234 233 234 237 239 240 241 242 241 243 245 246 247 249 251 253 254 256 259 259 261 263 264 267 269 270 272 275 275 276 277 278 279 281 282 283 284 285 286 286 287 288 288
235 235 236 238 240 241 242 244 243 245 246 248 249 251 252 254 257 258 261 261 262 264 266 269 270 271 272 273 274 275 277 278 278 279 280 282 284 284 285 287 287 287 288
237 237 237 239 242 244 245 246 246 246 247 248 249 251 253 255 257 259 261 261 262 263 265 267 271 272 272 273 274 275 278 277 277 278 280 281 281 284 285 286 287 287 288
239 239 239 240 241 244 246 248 249 248 248 249 250 253 255 257 258 260 262 264 264 265 266 267 271 273 274 274 273 275 276 277 277 278 279 280 281 284 284 285 286 288 288
242 243 242 242 243 246 248 249 251 250 250 250 251 253 255 257 258 260 262 264 264 265 265 267 270 272 275 276 277 278 278 278 278 279 279 280 281 283 284 286 288 289 289
248 248 246 244 245 247 249 250 252 252 251 252 253 254 255 257 260 262 264 264 264 264 265 266 269 270 272 275 276 277 278 278 279 280 281 281 282 283 284 286 288 289 290
251 251 249 246 246 248 250 252 253 254 254 254 255 255 256 258 260 263 264 265 265 265 266 267 268 269 270 273 275 277 278 279 279 279 281 282 283 284 283 285 288 289 291
255 253 251 250 249 250 251 253 255 255 255 256 256 257 258 259 261 263 263 263 264 265 265 266 268 268 270 272 274 275 277 279 280 280 282 283 283 284 285 287 289 291 292
257 256 254 252 253 253 252 254 255 257 259 258 257 259 260 260 261 262 263 264 264 265 265 266 268 269 270 271 272 274 275 277 278 279 280 281 284 286 286 287 289 291 293
257 257 256 254 254 255 255 254 256 258 260 259 259 260 261 261 262 263 264 264 265 264 265 266 267 268 269 270 272 273 275 277 278 279 280 282 284 287 287 288 290 292 293
259 258 258 258 258 257 257 256 258 260 261 261 262 262 262 262 263 264 264 264 265 265 265 265 266 267 268 272 273 274 276 278 279 280 281 283 284 286 289 290 291 292 292
262 260 260 261 260 260 260 260 261 261 263 264 264 265 263 263 264 265 265 266 266 265 264 264 265 267 269 270 273 276 276 278 280 281 281 282 284 286 289 291 291 292 292
265 262 262 262 261 262 263 264 264 264 264 264 265 265 264 264 265 265 266 267 267 266 266 265 267 268 270 271 273 275 277 278 279 280 281 282 285 286 288 290 291 292 293
265 265 264 264 264 264 266 267 267 267 266 266 265 265 266 265 265 264 266 267 267 267 267 268 268 270 271 272 274 276 277 278 279 280 281 283 286 287 288 289 291 293 294
266 266 266 266 267 268 268 270 270 269 269 267 265 265 266 265 265 264 265 266 266 266 267 267 269 272 273 274 275 277 277 278 279 279 281 283 286 286 287 288 290 292 294
266 268 268 268 269 270 271 272 272 271 270 268 266 267 267 265 264 264 264 265 266 266 266 268 269 271 273 274 276 277 278 277 277 279 281 282 284 286 286 287 288 291 292
269 270 272 272 272 272 273 274 272 270 270 270 268 267 266 265 264 263 263 263 265 265 266 268 268 269 272 274 276 276 277 276 278 279 281 282 283 285 285 285 287 289 289
273 272 273 274 275 275 275 275 274 272 271 270 268 266 264 264 263 263 264 265 265 266 267 268 268 269 272 273 274 276 276 277 278 279 281 282 283 284 284 285 287 289 289
276 274 273 275 276 277 277 275 275 275 273 269 266 265 264 264 263 264 265 265 265 266 267 267 269 270 272 273 274 276 277 277 278 279 281 282 284 284 284 285 287 289 290
277 276 276 276 277 278 278 276 274 275 274 270 267 266 265 265 265 265 265 264 264 266 267 268 269 270 271 272 274 276 276 277 279 280 282 284 284 284 285 286 288 288 289
278 278 277 276 277 278 278 278 276 274 272 272 270 268 267 267 266 265 263 263 264 265 266 268 269 270 271 273 275 276 276 278 279 281 283 286 287 286 286 287 288 289 290
Height
5713 5718 5723 5728 5734 5739 5743 5747 5751 5755 5759 5762 5766 5769 5772 5775 5777 5779 5781 5783 5784 5785 5786 5787 5788 5788 5788 5788 5787 5787 5786 5785 5783 5781 5780 5778 5777 5775 5773 5771 5769 5767 5765
5704 5709 5714 5720 5725 5730 5735 5739 5743 5747 5751 5754 5757 5760 5764 5766 5768 5770 5772 5773 5775 5777 5778 5778 5778 5779 5779 5779 5778 5777 5776 5775 5773 5772 5770 5770 5769 5767 5765 5762 5760 5758 5756
5696 5701 5706 5712 5717 5722 5726 5729 5734 5738 5742 5745 5748 5751 5754 5756 5759 5761 5763 5765 5766 5767 5768 5769 5769 5769 5769 5769 5768 5767 5766 5765 5764 5762 5761 5759 5759 5758 5757 5754 5751 5749 5747
5688 5693 5698 5703 5708 5713 5717 5721 5724 5729 5732 5736 5739 5742 5745 5747 5750 5752 5753 5755 5756 5757 5758 5759 5759 5759 5759 5758 5758 5757 5756 5755 5754 5753 5751 5749 5748 5747 5747 5745 5742 5739 5737
5679 5685 5690 5695 5700 5704 5708 5711 5714 5719 5722 5726 5729 5732 5734 5737 5739 5741 5743 5744 5746 5747 5748 5748 5749 5749 5749 5748 5747 5747 5745 5745 5744 5743 5741 5740 5738 5736 5735 5734 5733 5730 5728
5671 5676 5682 5686 5690 5695 5698 5702 5705 5709 5713 5716 5719 5721 5724 5727 5729 5731 5732 5734 5736 5736 5737 5737 5738 5738 5738 5737 5737 5736 5735 5734 5733 5732 5731 5730 5728 5727 5724 5723 5722 5721 5718
5664 5668 5673 5678 5682 5686 5689 5692 5696 5700 5703 5706 5709 5711 5714 5716 5719 5720 5722 5724 5725 5726 5727 5727 5727 5727 5727 5727 5726 5726 5725 5724 5723 5722 5721 5719 5718 5716 5714 5713 5711 5710 5708
5657 5662 5666 5670 5673 5677 5680 5683 5687 5690 5693 5696 5699 5701 5704 5706 5708 5710 5711 5713 5714 5715 5716 5716 5716 5716 5716 5716 5715 5715 5714 5713 5712 5711 5710 5709 5707 5705 5704 5702 5700 5699 5698
5651 5655 5658 5662 5665 5668 5671 5674 5677 5680 5683 5686 5689 5691 5694 5696 5698 5699 5701 5702 5703 5704 5704 5705 5706 5706 5706 5705 5705 5704 5704 5703 5702 5701 5700 5698 5697 5695 5693 5691 5689 5687 5686
5645 5648 5651 5654 5657 5660 5663 5665 5668 5671 5673 5676 5678 5681 5684 5686 5688 5689 5690 5691 5691 5692 5693 5694 5695 5696 5695 5695 5695 5694 5693 5693 5692 5691 5689 5688 5686 5685 5683 5681 5679 5676 5674
5639 5641 5644 5647 5649 5652 5654 5657 5659 5662 5664 5667 5669 5671 5673 5675 5677 5678 5679 5680 5680 5681 5683 5684 5684 5685 5685 5685 5685 5684 5683 5683 5681 5680 5678 5677 5676 5674 5672 5670 5668 5665 5663
5632 5634 5637 5639 5641 5643 5645 5648 5650 5652 5655 5657 5659 5661 5662 5664 5666 5668 5669 5669 5670 5671 5672 5673 5673 5674 5674 5674 5674 5674 5673 5672 5671 5670 5668 5667 5665 5663 5662 5659 5657 5655 5652
5626 5627 5629 5631 5633 5634 5637 5638 5641 5643 5645 5647 5649 5650 5651 5654 5656 5657 5658 5659 5659 5660 5661 5661 5662 5663 5663 5663 5663 5663 5662 5661 5660 5659 5658 5656 5655 5653 5651 5649 5647 5644 5641
5619 5620 5621 5622 5624 5626 5627 5629 5631 5633 5635 5636 5638 5640 5641 5643 5645 5646 5647 5648 5648 5649 5650 5650 5651 5652 5652 5652 5652 5652 5651 5650 5649 5648 5646 5645 5644 5642 5640 5638 5636 5633 5630
5611 5612 5613 5614 5615 5617 5618 5620 5622 5624 5625 5626 5628 5630 5631 5633 5634 5635 5636 5637 5637 5638 5638 5639 5640 5640 5641 5641 5641 5641 5640 5639 5638 5637 5635 5634 5633 5631 5629 5627 5624 5622 5619
5604 5604 5605 5606 5607 5608 5609 5611 5612 5614 5615 5617 5618 5619 5620 5622 5623 5624 5625 5625 5626 5626 5626 5627 5628 5629 5630 5630 5630 5629 5629 5628 5627 5626 5624 5623 5622 5620 5618 5616 5613 5610 5608
5596 5597 5597 5598 5598 5599 5600 5601 5602 5604 5605 5606 5607 5608 5609 5611 5612 5613 5614 5614 5614 5615 5615 5616 5617 5618 5619 5619 5619 5618 5618 5617 5616 5614 5613 5612 5611 5609 5607 5605 5602 5599 5596
5589 5589 5589 5590 5590 5591 5591 5591 5592 5593 5594 5595 5596 5596 5598 5599 5600 5601 5602 5602 5603 5604 5605 5605 5606 5607 5607 5608 5608 5607 5607 5606 5605 5604 5603 5602 5601 5599 5596 5594 5592 5589 5586
5581 5581 5581 5582 5582 5582 5582 5582 5582 5582 5583 5584 5584 5585 5586 5587 5589 5590 5590 5591 5592 5593 5594 5594 5595 5596 5596 5596 5596 5596 5596 5595 5594 5593 5592 5591 5590 5588 5586 5584 5581 5579 5576
5574 5573 5573 5573 5573 5573 5573 5573 5572 5572 5572 5573 5573 5574 5574 5576 5577 5578 5579 5580 5581 5583 5583 5584 5584 5585 5586 5586 5586 5585 5585 5585 5584 5583 5582 5580 5579 5577 5574 5573 5570 5568 5565
5566 5566 5565 5565 5565 5564 5564 5563 5563 5562 5562 5562 5563 5563 5564 5565 5566 5567 5568 5570 5571 5572 5573 5574 5575 5575 5576 5576 5575 5575 5574 5574 5573 5572 5571 5570 5568 5566 5564 5562 5560 5558 5555
5559 5558 5558 5557 5556 5555 5555 5554 5553 5553 5552 5552 5553 5553 5553 5554 5555 5556 5558 5559 5560 5562 5563 5564 5565 5565 5566 5566 5565 5565 5564 5563 5562 5561 5560 5558 5557 5555 5553 5551 5550 5547 5544
5551 5551 5550 5550 5548 5547 5546 5545 5544 5543 5543 5542 5542 5542 5543 5544 5545 5546 5548 5549 5550 5551 5552 5553 5554 5555 5555 5555 5555 5554 5553 5553 5552 5550 5549 5548 5546 5545 5543 5541 5539 5537 5534
5543 5542 5542 5541 5540 5538 5536 5535 5534 5533 5533 5533 5532 5533 5533 5534 5535 5536 5538 5539 5540 5541 5542 5543 5544 5545 5545 5545 5545 5544 5543 5542 5541 5540 5539 5538 5536 5534 5533 5531 5529 5527 5524
5534 5534 5533 5532 5531 5529 5527 5525 5524 5523 5523 5523 5523 5523 5524 5525 5526 5527 5528 5529 5530 5531 5533 5534 5534 5535 5535 5535 5535 5534 5533 5532 5531 5530 5529 5528 5527 5525 5523 5521 5519 5517 5515
5526 5525 5524 5523 5521 5520 5518 5516 5515 5514 5514 5514 5514 5514 5515 5515 5516 5517 5519 5519 5521 5522 5522 5523 5524 5524 5525 5525 5524 5524 5523 5522 5521 5520 5520 5518 5517 5515 5514 5512 5510 5508 5507